Location: ???????
(55.4362°N, 38.1183°E)
Time: 17:31:52
(UTC+00:00)

Cosmos 2333 Rocket - Pass Details

Date: 23 October 2021
Orbit: 837 x 865 km, 70.8° (Epoch: 04 December)

Event Time Altitude Azimuth Distance (km) Brightness Sun altitude
Exits shadow 01:54:26 - 326° (NW) 2,739 4.6 -20.3°
Reaches altitude 10° 01:55:03 10° 326° (NW) 2,506 4.4 -20.3°
Maximum altitude 02:00:50 84° 55° (NE) 874 2.2 -19.4°
Drops below altitude 10° 02:06:37 10° 145° (SE) 2,503 5.0 -18.6°
Sets 02:09:05 0° 146° (SE) 3,438 5.8 -18.3°
